CSN8004 UUEE-ZHHH

Flight info

Callsign CSN8004
Flight time N/A
Altitude 35000
Route KOGOM3J KOGOM L94 EKPIR M864 INKEB L94 NAMER T765 GEMKI L94 OKETI R234 ABESA L158 TISUP/K0895F370 L158 TR P982 DARNO/K0889S1130 Y746 NIXAL B208 GUTOV/K0907S1160 W37 PONUD PONUD2T
Aircraft B77W/H-SDE1E2E3FGHIJ2J3J4J5M1RWXY/LB1D1

Departure

Time N/A
Airport Sheremetyevo International Airport (UUEE)

Arrival

Time 2026-05-04 02:43
Airport Wuhan Tianhe International Airport (ZHHH)
Time Latitude Longitude Altitude Speed Heading
2026-05-04 01:51 34.96535 113.68452 35015 ft 502 kts 167°
2026-05-04 01:51 34.93276 113.69881 34986 ft 504 kts 167°
2026-05-04 01:52 34.86575 113.72817 35022 ft 512 kts 165°
2026-05-04 01:52 34.79724 113.75282 35053 ft 514 kts 169°
2026-05-04 01:53 34.72858 113.77486 35054 ft 511 kts 169°
2026-05-04 01:53 34.65968 113.79722 35076 ft 510 kts 169°
2026-05-04 01:54 34.59107 113.81964 35079 ft 509 kts 169°
2026-05-04 01:54 34.52359 113.84716 35089 ft 515 kts 157°
2026-05-04 01:55 34.46363 113.89528 35096 ft 521 kts 144°
2026-05-04 01:55 34.40987 113.94690 35078 ft 521 kts 144°
2026-05-04 01:56 34.35311 114.00133 35078 ft 521 kts 144°
2026-05-04 01:56 34.29623 114.05571 35093 ft 521 kts 145°
2026-05-04 01:57 34.23924 114.11005 35095 ft 520 kts 145°
2026-05-04 01:57 34.18243 114.16410 35083 ft 520 kts 145°
2026-05-04 01:58 34.12512 114.21850 35083 ft 520 kts 145°
2026-05-04 01:58 34.06826 114.27238 35084 ft 520 kts 145°
2026-05-04 01:59 34.01137 114.32620 35085 ft 517 kts 145°
2026-05-04 01:59 33.98344 114.35263 34816 ft 507 kts 145°
2026-05-04 01:59 33.95567 114.37884 33877 ft 512 kts 145°
2026-05-04 02:00 33.92753 114.40535 32948 ft 515 kts 145°
2026-05-04 02:00 33.89924 114.43202 32604 ft 504 kts 145°
2026-05-04 02:00 33.87213 114.45760 32548 ft 487 kts 146°
2026-05-04 02:00 33.84598 114.48224 32549 ft 471 kts 146°
2026-05-04 02:01 33.82059 114.50614 32547 ft 455 kts 146°
2026-05-04 02:01 33.79612 114.52949 32543 ft 439 kts 145°
2026-05-04 02:01 33.77274 114.55194 32540 ft 424 kts 145°
2026-05-04 02:01 33.74992 114.57385 32537 ft 409 kts 146°
2026-05-04 02:02 33.72823 114.59467 32529 ft 394 kts 146°
2026-05-04 02:02 33.70689 114.61507 32306 ft 387 kts 146°
2026-05-04 02:02 33.68597 114.63504 31801 ft 388 kts 146°
2026-05-04 02:02 33.66583 114.65508 31280 ft 392 kts 140°
2026-05-04 02:03 33.64667 114.67967 30824 ft 393 kts 136°
2026-05-04 02:03 33.62806 114.70322 30436 ft 386 kts 144°
2026-05-04 02:03 33.60680 114.72207 30017 ft 375 kts 157°
2026-05-04 02:03 33.58374 114.73486 29646 ft 362 kts 171°
2026-05-04 02:04 33.55937 114.74086 29375 ft 348 kts 184°
2026-05-04 02:04 33.53527 114.74186 29133 ft 351 kts 187°
2026-05-04 02:04 33.51067 114.74194 28879 ft 351 kts 188°
2026-05-04 02:04 33.48640 114.74110 28625 ft 348 kts 190°
2026-05-04 02:05 33.46227 114.73952 28373 ft 347 kts 191°
2026-05-04 02:05 33.44122 114.73787 28153 ft 348 kts 192°
2026-05-04 02:05 33.41486 114.73554 27877 ft 349 kts 192°
2026-05-04 02:05 33.39044 114.73328 27621 ft 349 kts 192°
2026-05-04 02:06 33.36612 114.73097 27367 ft 349 kts 192°
2026-05-04 02:06 33.34209 114.72869 27110 ft 343 kts 192°
2026-05-04 02:06 33.31863 114.72646 26857 ft 336 kts 192°
2026-05-04 02:06 33.29556 114.72425 26603 ft 330 kts 192°
2026-05-04 02:07 33.27287 114.72206 26350 ft 324 kts 192°
2026-05-04 02:07 33.25032 114.71987 26100 ft 324 kts 192°
2026-05-04 02:07 33.22777 114.71767 25849 ft 326 kts 192°
2026-05-04 02:07 33.20524 114.71550 25596 ft 325 kts 192°
2026-05-04 02:08 33.18276 114.71330 25344 ft 324 kts 192°
2026-05-04 02:08 33.16222 114.71128 25113 ft 323 kts 192°
2026-05-04 02:08 33.13878 114.70893 24850 ft 322 kts 192°
2026-05-04 02:08 33.11678 114.70675 24600 ft 322 kts 192°
2026-05-04 02:09 33.09425 114.70454 24344 ft 321 kts 192°
2026-05-04 02:09 33.07175 114.70230 24098 ft 331 kts 191°
2026-05-04 02:09 33.04859 114.69999 23844 ft 336 kts 191°
2026-05-04 02:09 33.02549 114.69774 23592 ft 335 kts 191°
2026-05-04 02:10 33.00217 114.69546 23338 ft 334 kts 191°
2026-05-04 02:10 32.99512 114.69477 23261 ft 333 kts 191°
2026-05-04 02:10 32.97433 114.69273 23036 ft 333 kts 191°
2026-05-04 02:10 32.95122 114.69045 22785 ft 332 kts 191°
2026-05-04 02:11 32.92824 114.68821 22535 ft 331 kts 191°
2026-05-04 02:11 32.90533 114.68596 22284 ft 329 kts 191°
2026-05-04 02:11 32.88246 114.68370 22030 ft 328 kts 190°
2026-05-04 02:11 32.85965 114.68152 21773 ft 327 kts 190°
2026-05-04 02:12 32.83712 114.67941 21520 ft 325 kts 190°
2026-05-04 02:12 32.81461 114.67728 21266 ft 324 kts 190°
2026-05-04 02:12 32.79205 114.67515 21009 ft 322 kts 190°
2026-05-04 02:12 32.76984 114.67303 20757 ft 320 kts 190°
2026-05-04 02:13 32.74771 114.67095 20503 ft 319 kts 190°
2026-05-04 02:13 32.72514 114.66879 20254 ft 330 kts 189°
2026-05-04 02:13 32.70198 114.66660 19998 ft 336 kts 189°
2026-05-04 02:13 32.67845 114.66442 19744 ft 343 kts 189°
2026-05-04 02:14 32.65465 114.66217 19487 ft 341 kts 189°
2026-05-04 02:14 32.63111 114.65997 19234 ft 339 kts 189°
2026-05-04 02:14 32.60770 114.65773 18980 ft 337 kts 189°
2026-05-04 02:14 32.58415 114.65550 18728 ft 336 kts 189°
2026-05-04 02:15 32.56102 114.65331 18477 ft 335 kts 189°
2026-05-04 02:15 32.53775 114.65114 18225 ft 334 kts 189°
2026-05-04 02:15 32.51461 114.64899 17973 ft 332 kts 189°
2026-05-04 02:15 32.49149 114.64683 17720 ft 331 kts 189°
2026-05-04 02:16 32.46879 114.64467 17472 ft 330 kts 189°
2026-05-04 02:16 32.44581 114.64253 17219 ft 329 kts 189°
2026-05-04 02:16 32.42306 114.64040 16968 ft 327 kts 189°
2026-05-04 02:16 32.40048 114.63827 16698 ft 326 kts 189°
2026-05-04 02:17 32.37790 114.63617 16364 ft 325 kts 188°
2026-05-04 02:17 32.35536 114.63397 16032 ft 325 kts 188°
2026-05-04 02:17 32.33286 114.63177 15701 ft 324 kts 188°
2026-05-04 02:17 32.31023 114.62959 15392 ft 323 kts 188°
2026-05-04 02:18 32.28787 114.62745 15147 ft 322 kts 188°
2026-05-04 02:18 32.26538 114.62523 14900 ft 322 kts 188°
2026-05-04 02:18 32.24315 114.62304 14656 ft 321 kts 188°
2026-05-04 02:18 32.22086 114.62089 14411 ft 320 kts 188°
2026-05-04 02:19 32.19882 114.61874 14168 ft 319 kts 188°
2026-05-04 02:19 32.17649 114.61654 13923 ft 318 kts 188°
2026-05-04 02:19 32.15456 114.61443 13682 ft 318 kts 188°
2026-05-04 02:19 32.13248 114.61227 13438 ft 317 kts 188°
2026-05-04 02:20 32.11054 114.61015 13196 ft 316 kts 188°
2026-05-04 02:20 32.08852 114.60805 12953 ft 315 kts 187°
2026-05-04 02:20 32.06692 114.60598 12716 ft 314 kts 187°
2026-05-04 02:20 32.04490 114.60380 12471 ft 314 kts 187°
2026-05-04 02:21 32.02314 114.60163 12230 ft 313 kts 187°
2026-05-04 02:21 32.00144 114.59956 11992 ft 312 kts 187°
2026-05-04 02:21 31.98003 114.59753 11753 ft 311 kts 187°
2026-05-04 02:21 31.95845 114.59544 11512 ft 310 kts 187°
2026-05-04 02:22 31.93688 114.59336 11272 ft 309 kts 187°
2026-05-04 02:22 31.91535 114.59129 11032 ft 308 kts 187°
2026-05-04 02:22 31.89405 114.58923 10792 ft 307 kts 186°
2026-05-04 02:22 31.87266 114.58716 10546 ft 306 kts 186°
2026-05-04 02:23 31.85159 114.58514 10304 ft 304 kts 186°
2026-05-04 02:23 31.83065 114.58312 10061 ft 302 kts 186°
2026-05-04 02:23 31.80967 114.58106 9817 ft 301 kts 186°
2026-05-04 02:23 31.78877 114.57906 9574 ft 299 kts 186°
2026-05-04 02:24 31.76796 114.57704 9330 ft 298 kts 186°
2026-05-04 02:24 31.74723 114.57505 9086 ft 296 kts 186°
2026-05-04 02:24 31.72677 114.57308 8845 ft 294 kts 186°
2026-05-04 02:24 31.70650 114.57115 8605 ft 292 kts 186°
2026-05-04 02:25 31.68628 114.56921 8361 ft 291 kts 186°
2026-05-04 02:25 31.66628 114.56728 8122 ft 289 kts 186°
2026-05-04 02:25 31.64963 114.56568 7921 ft 288 kts 186°
2026-05-04 02:25 31.62971 114.56375 7681 ft 286 kts 186°
2026-05-04 02:26 31.61001 114.56186 7442 ft 285 kts 186°
2026-05-04 02:26 31.59020 114.55997 7200 ft 284 kts 186°
2026-05-04 02:26 31.57045 114.55808 6971 ft 283 kts 186°
2026-05-04 02:26 31.55131 114.55627 6913 ft 282 kts 186°
2026-05-04 02:27 31.53157 114.55438 6907 ft 283 kts 186°
2026-05-04 02:27 31.51192 114.55248 6907 ft 283 kts 186°
2026-05-04 02:27 31.49227 114.55060 6908 ft 283 kts 186°
2026-05-04 02:27 31.47258 114.54871 6910 ft 283 kts 186°
2026-05-04 02:28 31.45283 114.54680 6908 ft 283 kts 186°
2026-05-04 02:28 31.43332 114.54498 6903 ft 275 kts 186°
2026-05-04 02:28 31.41463 114.54321 6901 ft 261 kts 186°
2026-05-04 02:28 31.39675 114.54154 6902 ft 252 kts 186°
2026-05-04 02:29 31.37947 114.53983 6903 ft 251 kts 186°
2026-05-04 02:29 31.36202 114.53815 6903 ft 250 kts 186°
2026-05-04 02:29 31.34458 114.53645 6903 ft 250 kts 186°
2026-05-04 02:29 31.32728 114.53479 6902 ft 250 kts 186°
2026-05-04 02:30 31.30986 114.53314 6903 ft 250 kts 186°
2026-05-04 02:30 31.29248 114.53146 6897 ft 250 kts 186°
2026-05-04 02:30 31.27501 114.52986 6706 ft 253 kts 186°
2026-05-04 02:30 31.25729 114.52820 6461 ft 251 kts 186°
2026-05-04 02:31 31.23995 114.52728 6217 ft 249 kts 179°
2026-05-04 02:31 31.22258 114.52852 5978 ft 248 kts 178°
2026-05-04 02:31 31.20556 114.52980 5741 ft 247 kts 178°
2026-05-04 02:31 31.18843 114.53115 5500 ft 246 kts 178°
2026-05-04 02:32 31.17138 114.53245 5260 ft 245 kts 178°
2026-05-04 02:32 31.15429 114.53375 5018 ft 244 kts 178°
2026-05-04 02:32 31.13754 114.53503 4780 ft 243 kts 178°
2026-05-04 02:32 31.12052 114.53632 4537 ft 241 kts 178°
2026-05-04 02:33 31.10374 114.53758 4296 ft 241 kts 178°
2026-05-04 02:33 31.08725 114.53698 4055 ft 238 kts 192°
2026-05-04 02:33 31.07159 114.53097 3807 ft 235 kts 209°
2026-05-04 02:33 31.05822 114.52016 3562 ft 232 kts 223°
2026-05-04 02:34 31.04625 114.50758 3320 ft 231 kts 223°
2026-05-04 02:34 31.03425 114.49501 3077 ft 230 kts 223°
2026-05-04 02:34 31.02245 114.48274 2924 ft 225 kts 223°
2026-05-04 02:34 31.01125 114.47069 2901 ft 212 kts 224°
2026-05-04 02:35 31.00086 114.45946 2896 ft 194 kts 223°
2026-05-04 02:35 30.99133 114.44942 2897 ft 176 kts 222°
2026-05-04 02:35 30.98259 114.44041 2895 ft 160 kts 222°
2026-05-04 02:35 30.97453 114.43219 2898 ft 145 kts 222°
2026-05-04 02:36 30.96716 114.42464 2901 ft 142 kts 222°
2026-05-04 02:36 30.95976 114.41711 2902 ft 141 kts 222°
2026-05-04 02:36 30.95240 114.40961 2903 ft 140 kts 222°
2026-05-04 02:36 30.94501 114.40204 2902 ft 140 kts 222°
2026-05-04 02:37 30.93770 114.39457 2902 ft 140 kts 222°
2026-05-04 02:37 30.93023 114.38691 2901 ft 140 kts 221°
2026-05-04 02:37 30.92286 114.37942 2900 ft 140 kts 222°
2026-05-04 02:37 30.91556 114.37194 2899 ft 141 kts 222°
2026-05-04 02:38 30.90818 114.36438 2900 ft 140 kts 222°
2026-05-04 02:38 30.90076 114.35681 2903 ft 141 kts 222°
2026-05-04 02:38 30.89339 114.34939 2891 ft 143 kts 221°
2026-05-04 02:38 30.88592 114.34167 2710 ft 141 kts 222°
2026-05-04 02:39 30.87839 114.33397 2533 ft 141 kts 221°
2026-05-04 02:39 30.87108 114.32645 2361 ft 142 kts 221°
2026-05-04 02:39 30.86376 114.31898 2186 ft 140 kts 221°
2026-05-04 02:39 30.85632 114.31142 2004 ft 141 kts 221°
2026-05-04 02:40 30.84894 114.30385 1825 ft 142 kts 221°
2026-05-04 02:40 30.84149 114.29624 1639 ft 142 kts 221°
2026-05-04 02:40 30.83452 114.28912 1466 ft 141 kts 221°
2026-05-04 02:40 30.82706 114.28153 1283 ft 142 kts 221°
2026-05-04 02:41 30.81971 114.27401 1099 ft 142 kts 221°
2026-05-04 02:41 30.81227 114.26643 912 ft 142 kts 221°
2026-05-04 02:41 30.80685 114.26090 775 ft 143 kts 221°
2026-05-04 02:41 30.80162 114.25558 645 ft 144 kts 221°
2026-05-04 02:42 30.79410 114.24790 453 ft 143 kts 221°
2026-05-04 02:42 30.78655 114.24025 257 ft 143 kts 221°
2026-05-04 02:42 30.77920 114.23274 130 ft 140 kts 221°
2026-05-04 02:42 30.77255 114.22597 120 ft 107 kts 221°
2026-05-04 02:43 30.76804 114.22146 120 ft 63 kts 221°
2026-05-04 02:43 30.76581 114.21907 120 ft 34 kts 227°
2026-05-04 02:43 30.76480 114.21719 120 ft 19 kts 247°
2026-05-04 02:43 30.76484 114.21594 120 ft 15 kts 307°
2026-05-04 02:44 30.76539 114.21521 120 ft 6 kts 324°
2026-05-04 02:44 30.76573 114.21518 120 ft 4 kts 16°
2026-05-04 02:44 30.76590 114.21530 120 ft 0 kts 39°
2026-05-04 02:44 30.76609 114.21549 120 ft 6 kts 39°
2026-05-04 02:45 30.76654 114.21592 120 ft 10 kts 40°
2026-05-04 02:45 30.76719 114.21658 120 ft 14 kts 41°
2026-05-04 02:45 30.76803 114.21747 120 ft 17 kts 41°
2026-05-04 02:45 30.76903 114.21849 120 ft 20 kts 41°